[[[{"header":{"parameterUnit":"kt","parameterCategory":2,"dx":1,"dy":1,"la1":30.253999710083008,"la2":30.299108505249023,"lo1":-89.0895004272461,"lo2":-89.04439544677734,"nx":28,"ny":28,"refTime":"2022-10-09T21:00:00:Z","depth":0,"parameterNumber":1,"parameterNumberName":"U-component_of_WINDS"},"data":[-4.5243,-4.5272,-4.5234,-4.525,-4.5218,-4.5223,-4.5212,-4.5194,-4.517,-4.5171,-4.5164,-4.5128,-4.5089,-4.5072,-4.5063,-4.5047,-4.5047,-4.5086,-4.5061,-4.492,-4.4899,-4.4878,-4.4869,-4.5086,-4.5086,-4.5212,-4.5213,-4.5214,-4.5146,-4.5115,-4.5112,-4.5083,-4.508,-4.5019,-4.4991,-4.4993,-4.4998,-4.4968,-4.4959,-4.4957,-4.495,-4.4895,-4.4882,-4.4895,-4.4865,-4.4894,-4.4893,-4.4888,-4.4736,-4.4727,-4.4918,-4.4918,-4.4918,-4.4918,-4.4918,-4.4918,-4.496,-4.4978,-4.4938,-4.4934,-4.4908,-4.4889,-4.49,-4.4855,-4.4851,-4.4832,-4.4785,-4.4791,-4.4753,-4.4716,-4.4694,-4.4697,-4.4659,-4.4677,-4.4682,-4.4689,-4.4702,-4.4529,-4.4693,-4.4692,-4.4691,-4.4691,-4.469,0,-4.4811,-4.4778,-4.4771,-4.4754,-4.4748,-4.4731,-4.4708,-4.4714,-4.4628,-4.4628,-4.4625,-4.4617,-4.46,-4.4594,-4.4571,-4.4543,-4.4481,-4.4469,-4.4482,-4.4506,-4.4531,-4.452,-4.4277,-4.4465,-4.4463,-4.4461,-4.446,-4.4459,-4.4622,-4.4648,-4.4586,-4.4587,-4.4564,-4.4566,-4.4559,-4.4481,-4.4478,-4.4438,-4.4458,-4.4449,-4.4438,-4.444,-4.4386,-4.4373,-4.4343,-4.4419,-4.434,-4.4363,-4.4346,-4.4346,-4.4349,-4.4437,-4.444,-4.4442,-4.4444,0,-4.452,-4.4455,-4.4482,-4.4416,-4.4401,-4.4432,-4.4376,-4.4391,-4.4344,-4.4359,-4.4358,-4.4285,-4.4283,-4.4215,-4.4199,-4.4164,-4.4216,-4.4186,-4.4229,-4.422,-4.4284,-4.4279,-4.4495,-4.452,-4.4292,-4.4295,-4.4296,0,-4.4334,-4.437,-4.4271,-4.429,-4.4328,-4.4247,-4.4287,-4.425,-4.4215,-4.4226,-4.4142,-4.4154,-4.4065,-4.4067,-4.4015,-4.4045,-4.4041,-4.4017,-4.4003,-4.4026,-4.4029,-4.4024,-4.4014,-4.3968,-4.3967,-4.3966,-4.3965,0,-4.4182,-4.417,-4.4199,-4.4186,-4.412,-4.4136,-4.4109,-4.4068,-4.4062,-4.4043,-4.4038,-4.4022,-4.4013,-4.4002,-4.3936,-4.3885,-4.397,-4.3886,-4.3945,-4.3947,-4.3968,-4.3968,-4.4175,-4.3964,-4.3964,-4.3963,-4.3963,0,-4.4021,-4.4003,-4.4055,-4.3998,-4.3998,-4.4018,-4.3996,-4.3996,-4.3959,-4.3927,-4.3912,-4.3848,-4.3867,-4.3789,-4.3815,-4.3768,-4.3764,-4.3742,-4.3745,-4.3744,-4.3659,-4.3787,-4.399,-4.4009,-4.3741,-4.374,-4.3738,0,-4.3866,-4.3901,-4.3831,-4.3883,-4.3889,-4.3795,-4.3815,-4.3784,-4.3743,-4.3743,-4.3697,-4.3697,-4.3625,-4.3615,-4.3637,-4.359,-4.3651,-4.3579,-4.3582,-4.3583,-4.3597,-4.3782,-4.383,-4.3953,-4.3713,-4.3716,-4.3718,0,-4.3738,-4.3655,-4.3669,-4.365,-4.3596,-4.36,-4.3623,-4.3605,-4.3609,-4.3582,-4.36,-4.3597,-4.3543,-4.3528,-4.3474,-4.35,-4.3607,-4.3438,-4.3435,-4.3472,-4.3694,-4.374,-4.3761,-4.3565,-4.3568,-4.357,-4.3698,0,-4.3514,-4.3521,-4.3555,-4.3516,-4.3509,-4.3536,-4.3463,-4.3464,-4.3413,-4.3368,-4.3392,-4.3348,-4.3329,-4.3334,-4.3283,-4.3363,-4.334,-4.3281,-4.3202,-4.3323,-4.3363,-4.338,-4.3148,-4.3145,-4.3143,-4.3141,0,0,-4.3383,-4.3391,-4.3313,-4.3332,-4.3321,-4.3221,-4.3257,-4.3235,-4.3192,-4.3187,-4.3141,-4.3132,-4.3098,-4.3135,-4.3166,-4.3158,-4.3166,-4.3126,-4.3265,-4.328,-4.3293,-4.3337,-4.3355,-4.3136,-4.3136,-4.3135,-4.3134,0,-4.3285,-4.3252,-4.3287,-4.326,-4.3217,-4.3168,-4.3177,-4.3116,-4.3089,-4.3111,-4.3029,-4.3034,-4.3028,-4.3003,-4.299,-4.312,-4.3058,-4.3119,-4.3215,-4.3244,-4.3262,-4.3277,-4.3325,-4.3343,-4.3128,-4.3129,-4.3129,0,-4.3147,-4.3102,-4.3111,-4.3079,-4.305,-4.3058,-4.2957,-4.2969,-4.2975,-4.2865,-4.2888,-4.2854,-4.2814,-4.2857,-4.2873,-4.2833,-4.2964,-4.2909,-4.2921,-4.2922,-4.2947,-4.2968,-4.2987,-4.2741,-4.274,-4.2739,0,0,-4.3073,-4.3079,-4.3006,-4.3053,-4.304,-4.2966,-4.2963,-4.2911,-4.2877,-4.2863,-4.2817,-4.2787,-4.2782,-4.2781,-4.2773,-4.2831,-4.2817,-4.2864,-4.2882,-4.2897,-4.2907,-4.2936,-4.2957,-4.2736,-4.2735,-4.2735,0,0,-4.3038,-4.2955,-4.2908,-4.2953,-4.2924,-4.2855,-4.2886,-4.2828,-4.2813,-4.2802,-4.2714,-4.2702,-4.2741,-4.271,-4.2666,-4.2744,-4.2666,-4.2675,-4.2763,-4.2785,-4.2802,-4.281,-4.2556,0,0,0,0,0,-4.29,-4.2965,-4.2924,-4.292,-4.2879,-4.2878,-4.2872,-4.2801,-4.2748,-4.2775,-4.2727,-4.266,-4.2668,-4.2627,-4.2625,-4.2675,-4.2685,-4.2694,-4.2702,-4.2828,-4.2852,-4.2872,0,0,0,0,0,0,-4.2898,-4.2894,-4.2922,-4.2857,-4.2847,-4.2874,-4.2769,-4.2751,-4.2743,-4.273,-4.2672,-4.2658,-4.2598,-4.2623,-4.2623,-4.2672,-4.2556,-4.2688,-4.2696,-4.2703,-4.2836,-4.2856,-4.2873,0,0,0,0,0,-4.2896,-4.2893,-4.2846,-4.2855,-4.2846,-4.2768,-4.2766,-4.275,-4.2743,-4.2669,-4.2653,-4.269,-4.2601,-4.2596,-4.2622,-4.2674,-4.2556,-4.2556,-4.2693,-4.2699,-4.2705,-4.2846,0,0,0,0,0,0,-4.2895,-4.2879,-4.2842,-4.2837,-4.2825,-4.2764,-4.2752,-4.275,-4.268,-4.2666,-4.2682,-4.2673,-4.2604,-4.2599,-4.2596,-4.2679,-4.2556,-4.2556,-4.2556,-4.2698,-4.2703,-4.2707,0,0,0,0,0,0,-4.288,-4.2875,-4.2839,-4.2806,-4.2796,-4.2762,-4.2752,-4.2763,-4.2681,-4.2697,-4.2687,-4.2679,-4.261,-4.2603,-4.2599,-4.2621,-4.2556,-4.2556,-4.2556,-4.2556,-4.2702,-4.2705,0,0,0,0,0,0,-4.2877,-4.2872,-4.2806,-4.2799,-4.279,-4.2726,-4.2771,-4.2733,-4.2652,-4.2702,-4.2642,-4.2638,-4.2615,-4.261,-4.2602,-4.2626,-4.2622,-4.2556,-4.2556,-4.2556,-4.2556,0,0,0,0,0,0,0,-4.2874,-4.292,-4.2874,-4.2794,-4.2786,-4.2788,-4.2787,-4.2785,-4.2651,-4.2647,-4.2643,-4.264,-4.2556,-4.2556,-4.2556,-4.263,0,0,-4.2556,-4.2556,0,0,0,0,0,0,0,0,-4.292,-4.292,-4.2873,-4.2872,-4.2871,-4.2788,-4.2787,-4.2786,-4.265,-4.2647,-4.2644,-4.2641,-4.2556,-4.2556,-4.2556,0,0,0,0,0,0,0,0,0,0,0,0,0,0,0,-4.2873,-4.2872,0,-4.2788,-4.2787,-4.2786,-4.265,-4.2647,-4.2645,-4.2642,-4.2556,-4.2556,-4.2556,0,0,0,0,0,0,0,0,0,0,0,0,0,0,0,0,0,0,0,0,0,0,0,0,0,0,0,0,0,0,0,0,0,0,0,0,0,0,0,0,0,0,0,0,0,0,0,0,0,0,0,0,0,0,0,0,0,0,0,0,0,0,0,0,0,0,0,0,0]}],[{"header":{"parameterUnit":"kt","parameterCategory":2,"dx":1,"dy":1,"la1":30.253999710083008,"la2":30.299108505249023,"lo1":-89.0895004272461,"lo2":-89.04439544677734,"nx":28,"ny":28,"refTime":"2022-10-09T21:00:00:Z","depth":0,"parameterNumber":2,"parameterNumberName":"V-component_of_WINDS"},"data":[-8.553,-8.5645,-8.5693,-8.5845,-8.5913,-8.6025,-8.6079,-8.6154,-8.6225,-8.6361,-8.6446,-8.6502,-8.6588,-8.6699,-8.6792,-8.6814,-8.6851,-8.686,-8.6884,-8.6806,-8.6798,-8.679,-8.6768,-8.6867,-8.6867,-8.696,-8.6961,-8.6962,-8.5475,-8.5545,-8.5638,-8.5761,-8.5842,-8.5863,-8.596,-8.6026,-8.6123,-8.621,-8.6296,-8.6417,-8.6518,-8.6601,-8.6704,-8.6757,-8.6771,-8.6782,-8.678,-8.6793,-8.671,-8.6687,-8.6769,-8.6769,-8.6769,-8.6769,-8.6769,-8.6769,-8.5389,-8.5455,-8.5557,-8.5659,-8.5732,-8.5813,-8.5883,-8.5952,-8.6041,-8.6156,-8.6191,-8.63,-8.6392,-8.6536,-8.6594,-8.668,-8.6675,-8.6699,-8.6706,-8.6712,-8.6714,-8.658,-8.6698,-8.6698,-8.6698,-8.6698,-8.6698,0,-8.534,-8.5376,-8.5467,-8.5574,-8.565,-8.5735,-8.5821,-8.5865,-8.5949,-8.6018,-8.6123,-8.619,-8.632,-8.6422,-8.6526,-8.6581,-8.6607,-8.6612,-8.663,-8.6617,-8.6594,-8.6611,-8.6477,-8.6608,-8.6607,-8.6607,-8.6607,-8.6606,-8.5259,-8.5329,-8.5455,-8.5514,-8.5572,-8.5663,-8.5726,-8.5795,-8.5859,-8.5971,-8.6024,-8.6126,-8.6212,-8.6367,-8.644,-8.6536,-8.6549,-8.6595,-8.6563,-8.6549,-8.6554,-8.655,-8.6559,-8.66,-8.6601,-8.6601,-8.6602,0,-8.5209,-8.5284,-8.5406,-8.5523,-8.5554,-8.5623,-8.5722,-8.5788,-8.5844,-8.5943,-8.5969,-8.6057,-8.6155,-8.6222,-8.6345,-8.6376,-8.649,-8.6498,-8.6461,-8.6467,-8.6517,-8.6512,-8.6662,-8.6687,-8.6582,-8.6583,-8.6584,0,-8.517,-8.5257,-8.5363,-8.5429,-8.5529,-8.5596,-8.5692,-8.5751,-8.5831,-8.5909,-8.5949,-8.6021,-8.6093,-8.6174,-8.622,-8.6324,-8.6346,-8.6377,-8.6388,-8.6375,-8.6371,-8.6408,-8.6404,-8.6407,-8.6406,-8.6405,-8.6405,0,-8.5086,-8.5242,-8.5351,-8.5398,-8.5529,-8.5577,-8.5633,-8.5722,-8.5782,-8.5869,-8.5909,-8.6003,-8.6056,-8.6128,-8.6187,-8.6163,-8.6314,-8.6293,-8.6346,-8.6345,-8.6376,-8.6373,-8.6489,-8.6404,-8.6403,-8.6403,-8.6403,0,-8.5064,-8.5155,-8.5299,-8.541,-8.5448,-8.5517,-8.5618,-8.5692,-8.5783,-8.5818,-8.5886,-8.5919,-8.6013,-8.5989,-8.612,-8.6074,-8.6123,-8.616,-8.6165,-8.6178,-8.6149,-8.6209,-8.6311,-8.6325,-8.619,-8.6188,-8.6187,0,-8.495,-8.5115,-8.5174,-8.5307,-8.5393,-8.5435,-8.5513,-8.5591,-8.5644,-8.5722,-8.5778,-8.5865,-8.586,-8.5896,-8.5952,-8.6013,-8.6073,-8.6006,-8.6118,-8.6121,-8.6097,-8.6191,-8.6191,-8.6281,-8.6165,-8.6167,-8.6169,0,-8.487,-8.5029,-8.5048,-8.5106,-8.5221,-8.529,-8.5378,-8.5481,-8.553,-8.5611,-8.5688,-8.5808,-8.5812,-8.5869,-8.5904,-8.5959,-8.6034,-8.5954,-8.5957,-8.5968,-8.6157,-8.6158,-8.6173,-8.6046,-8.6049,-8.6051,-8.6151,0,-8.4828,-8.4918,-8.4973,-8.5094,-8.5158,-8.5243,-8.5315,-8.5372,-8.5403,-8.5456,-8.5566,-8.5642,-8.5742,-8.5774,-8.5801,-8.5905,-8.5898,-8.5898,-8.5879,-8.5939,-8.5974,-8.5988,-8.5822,-8.5822,-8.5822,-8.5822,0,0,-8.4702,-8.4831,-8.4891,-8.4979,-8.5037,-8.5078,-8.5163,-8.5223,-8.5341,-8.538,-8.537,-8.5551,-8.5613,-8.5739,-8.5763,-8.5801,-8.5826,-8.5801,-8.5909,-8.5919,-8.5928,-8.5964,-8.5977,-8.5821,-8.5821,-8.5821,-8.5821,0,-8.4702,-8.4768,-8.4852,-8.4918,-8.5018,-8.507,-8.509,-8.5193,-8.523,-8.5337,-8.5367,-8.544,-8.5579,-8.5643,-8.5693,-8.5788,-8.5805,-8.5812,-8.5842,-8.5905,-8.5915,-8.5924,-8.5961,-8.5973,-8.5821,-8.5821,-8.5821,0,-8.4638,-8.4717,-8.4764,-8.4896,-8.496,-8.5044,-8.5044,-8.513,-8.5192,-8.5226,-8.5331,-8.5382,-8.5471,-8.5579,-8.5629,-8.5621,-8.5782,-8.5741,-8.5743,-8.5751,-8.5815,-8.5826,-8.5836,-8.5702,-8.5701,-8.57,0,0,-8.4628,-8.471,-8.4813,-8.4901,-8.494,-8.5017,-8.5067,-8.5102,-8.5183,-8.5214,-8.528,-8.5356,-8.5439,-8.5491,-8.5571,-8.5679,-8.5703,-8.5723,-8.5729,-8.5733,-8.5743,-8.5808,-8.5819,-8.5698,-8.5698,-8.5698,0,0,-8.4621,-8.4746,-8.4763,-8.4874,-8.4952,-8.5056,-8.5107,-8.5129,-8.5208,-8.5206,-8.5265,-8.5287,-8.5389,-8.5436,-8.5395,-8.5566,-8.5546,-8.5557,-8.5531,-8.5539,-8.5545,-8.5532,-8.5402,0,0,0,0,0,-8.4658,-8.4732,-8.4746,-8.4775,-8.4938,-8.5049,-8.507,-8.5123,-8.511,-8.5149,-8.5208,-8.5221,-8.5427,-8.5392,-8.5418,-8.5464,-8.5665,-8.5671,-8.5676,-8.5669,-8.5677,-8.5683,0,0,0,0,0,0,-8.467,-8.4706,-8.4744,-8.4851,-8.4888,-8.5047,-8.5036,-8.5053,-8.5107,-8.5109,-8.521,-8.5224,-8.5269,-8.5382,-8.5405,-8.5447,-8.5394,-8.5667,-8.5672,-8.5677,-8.5672,-8.5678,-8.5683,0,0,0,0,0,-8.468,-8.4708,-8.4957,-8.485,-8.4883,-8.4971,-8.5034,-8.5048,-8.509,-8.518,-8.5195,-8.5125,-8.5269,-8.5292,-8.5396,-8.5435,-8.5379,-8.5387,-8.567,-8.5674,-8.5678,-8.5675,0,0,0,0,0,0,-8.4687,-8.4721,-8.4965,-8.4977,-8.4826,-8.4963,-8.4986,-8.5043,-8.5159,-8.5175,-8.5098,-8.5098,-8.527,-8.5287,-8.5304,-8.5429,-8.5366,-8.5375,-8.538,-8.5673,-8.5676,-8.5679,0,0,0,0,0,0,-8.4706,-8.473,-8.4971,-8.4938,-8.4947,-8.4955,-8.4976,-8.507,-8.516,-8.507,-8.5074,-8.5097,-8.5242,-8.5284,-8.5298,-8.5443,-8.5356,-8.5365,-8.537,-8.5374,-8.5676,-8.5678,0,0,0,0,0,0,-8.4717,-8.4738,-8.4935,-8.4942,-8.4949,-8.5085,-8.5039,-8.5203,-8.5135,-8.5064,-8.513,-8.5128,-8.5239,-8.5254,-8.5293,-8.5432,-8.544,-8.5357,-8.5362,-8.5366,-8.5369,0,0,0,0,0,0,0,-8.4726,-8.4572,-8.4896,-8.4945,-8.4951,-8.5086,-8.5089,-8.5092,-8.5134,-8.5132,-8.513,-8.5129,-8.531,-8.5319,-8.5328,-8.5424,0,0,-8.5356,-8.536,0,0,0,0,0,0,0,0,-8.4564,-8.457,-8.4896,-8.4899,-8.4901,-8.5086,-8.5089,-8.5091,-8.5134,-8.5132,-8.5131,-8.5129,-8.5312,-8.5319,-8.5327,0,0,0,0,0,0,0,0,0,0,0,0,0,0,0,-8.4896,-8.4898,0,-8.5086,-8.5089,-8.5091,-8.5134,-8.5132,-8.5131,-8.513,-8.5314,-8.532,-8.5326,0,0,0,0,0,0,0,0,0,0,0,0,0,0,0,0,0,0,0,0,0,0,0,0,0,0,0,0,0,0,0,0,0,0,0,0,0,0,0,0,0,0,0,0,0,0,0,0,0,0,0,0,0,0,0,0,0,0,0,0,0,0,0,0,0,0,0,0,0]}]]]